星链-32086 (STARLINK-32086 )

导读

STARLINK-32086是美国太空探索技术公司SpaceX星链Starlink低轨互联网星座的一员,于北京时间2024年5月8日发射入轨。星链项目旨在构建覆盖全球的太空互联网通信系统,该卫星运行于近地轨道,主要负责为全球用户提供高速、低延迟的宽带互联网接入服务,补充并扩展星链星座的全球网络覆盖能力。

基本信息
目录编号:
59703
目录名称:
STARLINK-32086
国际标识:
2024-086X
轨道中心:
EARTH
卫星名称:
星链-32086
卫星全名:
星链-32086 (STARLINK-32086 )
卫星状态:
在轨 (已飞行771 天)
发射日期:
2024-05-08 UTC
国别 :
美国 (US)
星等 :
--
轨道信息
数据来源 国际轨道数据 AOE轨道数据
星历时间 2026-06-17T04:47:37+0800
1天前
查看轨道信息
2026-06-17T07:00:00+0800
1天前
查看轨道信息
半长轴 6861.186km 6861.168km
偏心率 0.0000935 0.000118
轨道倾角 43.001° 43.002°
近地点辐角 282.181° 199.255°
升交点赤经 219.484° 218.967°
平近点角 77.893° 306.963°
近地点 482.407km 482.221km
远地点 483.691km 483.841km
周期 94.267分钟 94.266分钟
每日圈数 15.275803 15.275861
详细信息
固有亮度:
5
最大亮度:
1.5
卫星平台:
Starlink v2.0 mini
覆盖范围:
全球
运营商:
太空探索技术公司
运营商所在国:
美国
制造商(研发单位):
太空探索技术公司
制造商所在国:
美国
使用方式:
暂无
卫星简介
星链(Starlink)计划是由太空探索技术公司(SpaceX)提出的一个巨型低轨卫星互联网星座项目,计划在2019年至2024年间在太空搭建由约1.2万颗卫星组成的“星链”网络,其中1584颗将部署在地球上空550千米处的近地轨道,并从2020年开始工作。该卫星仍在工作。
2D轨道图
3D轨道图
轨道高度分析图
轨道倾角分析图
轨道综合分析图
查看轨道综合分析图